GFA504 OBBI-OMDB

Flight info

Callsign GFA504
Flight time 0h 46m
Altitude 25000
Route BHR075/12L DCT BHR N697 SODAK P559 VUTEB VUTEB3E
Aircraft A20N/M-SDE2E3FGHIRWXY/LB1

Departure

Time 2026-05-05 17:58
Airport Bahrain International Airport (OBBI)

Arrival

Time 2026-05-05 18:45
Airport Dubai International Airport (OMDB)
Time Latitude Longitude Altitude Speed Heading
2026-05-05 17:27 26.26882 50.62935 19 ft 0 kts 213°
2026-05-05 17:36 26.26882 50.62936 19 ft 0 kts 213°
2026-05-05 17:47 26.26883 50.62936 19 ft 1 kts 213°
2026-05-05 17:48 26.26903 50.62950 20 ft 4 kts 211°
2026-05-05 17:48 26.26925 50.62964 19 ft 4 kts 210°
2026-05-05 17:48 26.26946 50.62978 19 ft 4 kts 216°
2026-05-05 17:48 26.26964 50.62996 20 ft 4 kts 258°
2026-05-05 17:49 26.26965 50.63005 19 ft 3 kts 301°
2026-05-05 17:50 26.26965 50.63006 19 ft 0 kts 301°
2026-05-05 17:52 26.26967 50.63002 18 ft 1 kts 301°
2026-05-05 17:52 26.26983 50.62971 19 ft 8 kts 300°
2026-05-05 17:53 26.27027 50.62908 20 ft 14 kts 325°
2026-05-05 17:53 26.27135 50.62894 19 ft 18 kts 343°
2026-05-05 17:53 26.27191 50.62820 22 ft 7 kts 302°
2026-05-05 17:53 26.27213 50.62781 23 ft 5 kts 302°
2026-05-05 17:54 26.27272 50.62683 25 ft 20 kts 303°
2026-05-05 17:54 26.27339 50.62581 29 ft 5 kts 309°
2026-05-05 17:54 26.27358 50.62553 28 ft 4 kts 298°
2026-05-05 17:54 26.27412 50.62450 29 ft 22 kts 301°
2026-05-05 17:55 26.27496 50.62307 27 ft 22 kts 305°
2026-05-05 17:55 26.27578 50.62168 25 ft 21 kts 303°
2026-05-05 17:55 26.27657 50.62036 28 ft 20 kts 304°
2026-05-05 17:55 26.27720 50.61923 27 ft 16 kts 302°
2026-05-05 17:56 26.27775 50.61826 27 ft 14 kts 302°
2026-05-05 17:56 26.27810 50.61768 26 ft 13 kts 304°
2026-05-05 17:56 26.27862 50.61690 28 ft 12 kts 313°
2026-05-05 17:56 26.27927 50.61660 26 ft 9 kts
2026-05-05 17:57 26.27977 50.61694 27 ft 9 kts 54°
2026-05-05 17:57 26.27988 50.61784 27 ft 13 kts 102°
2026-05-05 17:57 26.27948 50.61870 27 ft 8 kts 122°
2026-05-05 17:57 26.27907 50.61941 28 ft 24 kts 123°
2026-05-05 17:58 26.27635 50.62412 26 ft 117 kts 122°
2026-05-05 17:58 26.27068 50.63401 137 ft 176 kts 121°
2026-05-05 17:58 26.26413 50.64597 1020 ft 183 kts 121°
2026-05-05 17:58 26.25760 50.65844 1921 ft 181 kts 119°
2026-05-05 17:59 26.25452 50.67078 2096 ft 157 kts 88°
2026-05-05 17:59 26.25601 50.68233 2294 ft 151 kts 79°
2026-05-05 17:59 26.25841 50.69426 2492 ft 169 kts 78°
2026-05-05 17:59 26.26131 50.70809 2638 ft 194 kts 78°
2026-05-05 18:00 26.26459 50.72386 2810 ft 219 kts 78°
2026-05-05 18:00 26.26820 50.74108 3065 ft 243 kts 78°
2026-05-05 18:00 26.27218 50.76030 3399 ft 264 kts 76°
2026-05-05 18:00 26.28016 50.77908 4026 ft 274 kts 51°
2026-05-05 18:01 26.29499 50.79265 4744 ft 280 kts 29°
2026-05-05 18:01 26.31203 50.80334 5512 ft 283 kts 27°
2026-05-05 18:01 26.32942 50.81405 6274 ft 287 kts 27°
2026-05-05 18:01 26.34705 50.82481 7007 ft 291 kts 27°
2026-05-05 18:02 26.36494 50.83573 7767 ft 294 kts 27°
2026-05-05 18:02 26.38301 50.84684 8551 ft 298 kts 27°
2026-05-05 18:02 26.40123 50.85811 9325 ft 302 kts 26°
2026-05-05 18:02 26.41972 50.86957 10075 ft 305 kts 26°
2026-05-05 18:03 26.43888 50.88145 10440 ft 325 kts 26°
2026-05-05 18:03 26.45945 50.89422 10644 ft 349 kts 27°
2026-05-05 18:03 26.48136 50.90781 10795 ft 372 kts 27°
2026-05-05 18:03 26.50466 50.92224 10913 ft 393 kts 27°
2026-05-05 18:04 26.52876 50.93720 11159 ft 407 kts 27°
2026-05-05 18:04 26.55370 50.95275 11705 ft 412 kts 27°
2026-05-05 18:04 26.57897 50.96854 12199 ft 419 kts 27°
2026-05-05 18:04 26.60460 50.98456 12772 ft 423 kts 27°
2026-05-05 18:05 26.63047 51.00072 13385 ft 426 kts 27°
2026-05-05 18:05 26.65646 51.01695 13952 ft 429 kts 27°
2026-05-05 18:05 26.68262 51.03325 14475 ft 432 kts 27°
2026-05-05 18:05 26.70893 51.04997 14971 ft 437 kts 30°
2026-05-05 18:06 26.73209 51.07253 15447 ft 445 kts 49°
2026-05-05 18:06 26.74348 51.09177 15765 ft 450 kts 62°
2026-05-05 18:06 26.75412 51.13725 16402 ft 458 kts 88°
2026-05-05 18:06 26.75003 51.17257 16876 ft 461 kts 107°
2026-05-05 18:07 26.73954 51.20663 17344 ft 463 kts 110°
2026-05-05 18:07 26.72861 51.24064 17805 ft 466 kts 110°
2026-05-05 18:07 26.71752 51.27479 18228 ft 468 kts 110°
2026-05-05 18:07 26.70635 51.30916 18603 ft 470 kts 110°
2026-05-05 18:08 26.69531 51.34324 18967 ft 473 kts 110°
2026-05-05 18:08 26.68411 51.37792 19331 ft 475 kts 110°
2026-05-05 18:08 26.67287 51.41277 19677 ft 477 kts 110°
2026-05-05 18:08 26.66159 51.44782 20022 ft 480 kts 110°
2026-05-05 18:09 26.65024 51.48308 20342 ft 482 kts 110°
2026-05-05 18:09 26.63886 51.51857 20672 ft 485 kts 110°
2026-05-05 18:09 26.62747 51.55424 20990 ft 487 kts 110°
2026-05-05 18:09 26.61604 51.58998 21298 ft 490 kts 110°
2026-05-05 18:10 26.60464 51.62553 21594 ft 493 kts 111°
2026-05-05 18:10 26.59294 51.66177 21884 ft 495 kts 111°
2026-05-05 18:10 26.58118 51.69805 22172 ft 498 kts 111°
2026-05-05 18:10 26.56931 51.73468 22440 ft 500 kts 111°
2026-05-05 18:11 26.56143 51.75900 22635 ft 502 kts 111°
2026-05-05 18:11 26.54564 51.80766 22966 ft 505 kts 111°
2026-05-05 18:11 26.53364 51.84467 23210 ft 507 kts 111°
2026-05-05 18:11 26.52166 51.88170 23424 ft 509 kts 111°
2026-05-05 18:12 26.50947 51.91905 23599 ft 511 kts 111°
2026-05-05 18:12 26.49713 51.95634 23749 ft 513 kts 112°
2026-05-05 18:12 26.48444 51.99429 23903 ft 515 kts 112°
2026-05-05 18:12 26.47186 52.03173 24041 ft 516 kts 112°
2026-05-05 18:13 26.45941 52.06884 24167 ft 518 kts 112°
2026-05-05 18:13 26.44679 52.10654 24289 ft 519 kts 112°
2026-05-05 18:13 26.43399 52.14484 24401 ft 520 kts 112°
2026-05-05 18:13 26.42136 52.18271 24512 ft 521 kts 112°
2026-05-05 18:14 26.40885 52.22028 24625 ft 522 kts 112°
2026-05-05 18:14 26.39612 52.25840 24763 ft 522 kts 112°
2026-05-05 18:14 26.38336 52.29644 24807 ft 524 kts 112°
2026-05-05 18:14 26.37048 52.33464 24802 ft 524 kts 112°
2026-05-05 18:15 26.35773 52.37230 24807 ft 524 kts 112°
2026-05-05 18:15 26.34456 52.41020 24806 ft 524 kts 114°
2026-05-05 18:15 26.33066 52.44777 24801 ft 523 kts 115°
2026-05-05 18:15 26.31605 52.48553 24799 ft 523 kts 115°
2026-05-05 18:16 26.30155 52.52217 24803 ft 522 kts 116°
2026-05-05 18:16 26.28685 52.55924 24800 ft 522 kts 115°
2026-05-05 18:16 26.27223 52.59641 24806 ft 522 kts 115°
2026-05-05 18:16 26.25775 52.63358 24801 ft 522 kts 115°
2026-05-05 18:17 26.24344 52.67069 24800 ft 522 kts 115°
2026-05-05 18:17 26.22918 52.70793 24803 ft 521 kts 115°
2026-05-05 18:17 26.21518 52.74474 24807 ft 521 kts 114°
2026-05-05 18:17 26.20102 52.78196 24802 ft 521 kts 114°
2026-05-05 18:18 26.18686 52.81912 24806 ft 521 kts 115°
2026-05-05 18:18 26.17264 52.85634 24805 ft 521 kts 115°
2026-05-05 18:18 26.15840 52.89345 24805 ft 521 kts 115°
2026-05-05 18:18 26.14411 52.93059 24810 ft 521 kts 115°
2026-05-05 18:19 26.12981 52.96767 24815 ft 521 kts 115°
2026-05-05 18:19 26.11552 53.00469 24816 ft 521 kts 115°
2026-05-05 18:19 26.10121 53.04178 24815 ft 521 kts 115°
2026-05-05 18:19 26.08712 53.07901 24815 ft 521 kts 114°
2026-05-05 18:20 26.07353 53.11585 24815 ft 521 kts 113°
2026-05-05 18:20 26.05996 53.15329 24816 ft 521 kts 113°
2026-05-05 18:20 26.04642 53.19076 24812 ft 521 kts 113°
2026-05-05 18:20 26.03285 53.22814 24813 ft 520 kts 113°
2026-05-05 18:21 26.01920 53.26549 24811 ft 520 kts 113°
2026-05-05 18:21 26.00546 53.30278 24817 ft 520 kts 114°
2026-05-05 18:21 25.99167 53.34001 24814 ft 520 kts 114°
2026-05-05 18:21 25.97805 53.37668 24814 ft 520 kts 114°
2026-05-05 18:22 25.96423 53.41393 24813 ft 520 kts 114°
2026-05-05 18:22 25.95042 53.45114 24817 ft 520 kts 114°
2026-05-05 18:22 25.93660 53.48834 24813 ft 520 kts 114°
2026-05-05 18:22 25.92298 53.52558 24815 ft 520 kts 113°
2026-05-05 18:23 25.91004 53.56250 24814 ft 520 kts 112°
2026-05-05 18:23 25.89727 53.60010 24812 ft 519 kts 111°
2026-05-05 18:23 25.88461 53.63782 24809 ft 519 kts 111°
2026-05-05 18:23 25.87193 53.67547 24811 ft 519 kts 111°
2026-05-05 18:24 25.85926 53.71268 24808 ft 519 kts 112°
2026-05-05 18:24 25.84635 53.75022 24809 ft 519 kts 112°
2026-05-05 18:24 25.83336 53.78766 24805 ft 519 kts 112°
2026-05-05 18:24 25.82032 53.82504 24795 ft 519 kts 112°
2026-05-05 18:25 25.80723 53.86241 24802 ft 519 kts 112°
2026-05-05 18:25 25.80300 53.87447 24802 ft 519 kts 112°
2026-05-05 18:25 25.78121 53.93670 24803 ft 519 kts 112°
2026-05-05 18:25 25.76815 53.97417 24800 ft 519 kts 112°
2026-05-05 18:26 25.75513 54.01160 24804 ft 519 kts 112°
2026-05-05 18:26 25.74257 54.04924 24805 ft 520 kts 110°
2026-05-05 18:26 25.73072 54.08712 24807 ft 520 kts 109°
2026-05-05 18:26 25.71932 54.12528 24806 ft 520 kts 109°
2026-05-05 18:27 25.70809 54.16345 24803 ft 520 kts 109°
2026-05-05 18:27 25.69698 54.20109 24732 ft 503 kts 109°
2026-05-05 18:27 25.68609 54.23748 24075 ft 492 kts 109°
2026-05-05 18:27 25.67515 54.27325 23134 ft 489 kts 109°
2026-05-05 18:28 25.65320 54.34371 21486 ft 476 kts 109°
2026-05-05 18:28 25.64605 54.36660 20996 ft 471 kts 109°
2026-05-05 18:28 25.63537 54.40081 20282 ft 465 kts 109°
2026-05-05 18:29 25.62483 54.43467 19584 ft 460 kts 109°
2026-05-05 18:29 25.61446 54.46803 18930 ft 454 kts 109°
2026-05-05 18:29 25.60422 54.50095 18286 ft 449 kts 109°
2026-05-05 18:29 25.59410 54.53342 17599 ft 444 kts 109°
2026-05-05 18:30 25.58484 54.56591 16955 ft 438 kts 102°
2026-05-05 18:30 25.58127 54.59868 16809 ft 421 kts 90°
2026-05-05 18:30 25.58324 54.63043 16679 ft 404 kts 81°
2026-05-05 18:30 25.58705 54.66074 16552 ft 390 kts 81°
2026-05-05 18:31 25.59070 54.68996 16427 ft 376 kts 81°
2026-05-05 18:31 25.59421 54.71819 16302 ft 364 kts 81°
2026-05-05 18:31 25.59763 54.74552 16027 ft 356 kts 81°
2026-05-05 18:31 25.60102 54.77318 15276 ft 365 kts 81°
2026-05-05 18:32 25.60444 54.80053 15158 ft 353 kts 81°
2026-05-05 18:32 25.60587 54.82724 15032 ft 342 kts 97°
2026-05-05 18:32 25.59749 54.85138 14920 ft 333 kts 126°
2026-05-05 18:32 25.58057 54.86748 14800 ft 323 kts 155°
2026-05-05 18:33 25.55931 54.87376 14693 ft 313 kts 171°
2026-05-05 18:33 25.53786 54.87668 14382 ft 311 kts 174°
2026-05-05 18:33 25.51591 54.87877 13832 ft 320 kts 175°
2026-05-05 18:33 25.49343 54.88079 13182 ft 329 kts 175°
2026-05-05 18:34 25.47026 54.88313 12430 ft 339 kts 174°
2026-05-05 18:34 25.44648 54.88585 11696 ft 347 kts 173°
2026-05-05 18:34 25.42210 54.88893 10961 ft 345 kts 173°
2026-05-05 18:34 25.39851 54.89205 10271 ft 337 kts 172°
2026-05-05 18:35 25.37549 54.89539 9568 ft 329 kts 168°
2026-05-05 18:35 25.35439 54.90396 8823 ft 320 kts 148°
2026-05-05 18:35 25.33756 54.91905 8104 ft 312 kts 130°
2026-05-05 18:35 25.32524 54.93891 7377 ft 305 kts 121°
2026-05-05 18:36 25.31411 54.95867 6682 ft 301 kts 121°
2026-05-05 18:36 25.30304 54.97816 5985 ft 297 kts 121°
2026-05-05 18:36 25.29212 54.99733 5262 ft 293 kts 121°
2026-05-05 18:36 25.28175 55.01654 4566 ft 288 kts 113°
2026-05-05 18:37 25.27689 55.03763 3836 ft 281 kts 91°
2026-05-05 18:37 25.27962 55.05869 3233 ft 273 kts 69°
2026-05-05 18:37 25.28852 55.07583 3052 ft 250 kts 50°
2026-05-05 18:37 25.30108 55.08787 3000 ft 231 kts 31°
2026-05-05 18:38 25.31567 55.09454 3003 ft 227 kts 13°
2026-05-05 18:38 25.33132 55.09703 3003 ft 227 kts
2026-05-05 18:38 25.34702 55.09916 3006 ft 227 kts
2026-05-05 18:38 25.36189 55.10449 3002 ft 225 kts 34°
2026-05-05 18:39 25.37256 55.11672 2998 ft 223 kts 63°
2026-05-05 18:39 25.37664 55.13308 3005 ft 222 kts 90°
2026-05-05 18:39 25.37241 55.14882 3002 ft 208 kts 121°
2026-05-05 18:39 25.36504 55.16168 2999 ft 193 kts 121°
2026-05-05 18:40 25.35810 55.17403 3022 ft 183 kts 121°
2026-05-05 18:40 25.35160 55.18574 3022 ft 175 kts 121°
2026-05-05 18:40 25.34533 55.19709 3002 ft 172 kts 121°
2026-05-05 18:40 25.33910 55.20837 2964 ft 171 kts 121°
2026-05-05 18:41 25.33296 55.21948 2795 ft 166 kts 120°
2026-05-05 18:41 25.32708 55.23013 2634 ft 160 kts 120°
2026-05-05 18:41 25.32133 55.24053 2446 ft 157 kts 120°
2026-05-05 18:41 25.31564 55.25083 2257 ft 155 kts 120°
2026-05-05 18:42 25.31004 55.26096 2059 ft 152 kts 120°
2026-05-05 18:42 25.30462 55.27076 1873 ft 147 kts 120°
2026-05-05 18:42 25.29932 55.28035 1697 ft 145 kts 120°
2026-05-05 18:42 25.29410 55.28979 1518 ft 144 kts 120°
2026-05-05 18:43 25.28891 55.29918 1333 ft 143 kts 120°
2026-05-05 18:43 25.28375 55.30851 1152 ft 141 kts 120°
2026-05-05 18:43 25.27861 55.31779 977 ft 140 kts 120°
2026-05-05 18:43 25.27354 55.32694 807 ft 140 kts 120°
2026-05-05 18:44 25.26850 55.33605 647 ft 140 kts 120°
2026-05-05 18:44 25.26326 55.34536 463 ft 141 kts 121°
2026-05-05 18:44 25.25815 55.35443 274 ft 139 kts 118°
2026-05-05 18:44 25.25318 55.36357 108 ft 139 kts 120°
2026-05-05 18:45 25.24821 55.37270 32 ft 123 kts 118°
2026-05-05 18:45 25.24599 55.37672 28 ft 35 kts 121°
2026-05-05 18:45 25.24477 55.37894 30 ft 33 kts 122°
2026-05-05 18:45 25.24347 55.38098 31 ft 21 kts 144°
2026-05-05 18:46 25.24243 55.38075 30 ft 9 kts 211°
2026-05-05 18:46 25.24232 55.38067 27 ft 4 kts 211°
2026-05-05 18:46 25.24206 55.38024 23 ft 15 kts 260°
2026-05-05 18:46 25.24257 55.37915 23 ft 17 kts 302°
2026-05-05 18:47 25.24321 55.37808 23 ft 17 kts 300°
2026-05-05 18:47 25.24380 55.37697 25 ft 17 kts 302°
2026-05-05 18:47 25.24444 55.37585 23 ft 17 kts 298°
2026-05-05 18:47 25.24508 55.37470 25 ft 18 kts 304°
2026-05-05 18:48 25.24575 55.37351 23 ft 19 kts 300°
2026-05-05 18:48 25.24646 55.37223 23 ft 20 kts 302°
2026-05-05 18:48 25.24723 55.37086 23 ft 22 kts 302°
2026-05-05 18:48 25.24810 55.36934 23 ft 24 kts 301°
2026-05-05 18:49 25.24871 55.36751 23 ft 27 kts 281°
2026-05-05 18:49 25.24929 55.36600 23 ft 18 kts 302°
2026-05-05 18:49 25.24983 55.36477 24 ft 18 kts 279°
2026-05-05 18:49 25.24989 55.36338 22 ft 17 kts 278°
2026-05-05 18:50 25.24968 55.36246 22 ft 12 kts 217°
2026-05-05 18:50 25.24917 55.36213 24 ft 0 kts 211°
2026-05-05 18:50 25.24913 55.36210 23 ft 3 kts 211°
2026-05-05 18:50 25.24911 55.36209 23 ft 0 kts 211°
2026-05-05 19:01 25.24912 55.36209 21 ft 0 kts 211°